CZ-6A DEB

Satellite information

Favourite Embed

Satellite Type and Status

DEBRISIN ORBIT

Key statistics

Satellite CZ-6A DEB at a glance.

Uptime

969

Days in orbit

Revolutions

≈ 13.9

Per day

Orbit

SSO

Sun Synchronous Orbit

Inclination

98.9

Latest

Satellite identification and parameters

Extended collection of information and parameters for CZ-6A DEB.

Object identification

Identified? True

Debris? True

Object name: CZ-6A DEB

International designator: 2022-151AEU

Object number (NORAD): 56620

Object ID (CCSDS): 56620

Country: PEOPLES REPUBLIC OF CHINA (PRC)

Current information (Y/N): Y

RCS size: SMALL

Orbital parameters

Period: 103.802 minutes

Inclination: 98.8873 deg

SMA: 7316.383 km

Apoapsis: 1052.873 km

Periapsis: 823.624 km

RAAN: 154.9225 deg

Eccentricy: 0.0156668

Argument of periapsis: 331.9587 deg

Mean anomaly: 27.3196 deg

Mean motion: 13.87260691 rev/day

Mean motion (dot): 0.00000865 rev/day2

B* drag term: 0.00070045 1/REarth

Two-line elements (TLE)

Creation date: July 6, 2025, 10:16 p.m.

Reference frame: TEME

Reference center: EARTH

Epoch: July 6, 2025, 9:13 p.m. UTC

TLE line 0: 0 CZ-6A DEB

TLE line 1: 1 56620U 22151AEU 25187.88453024 .00000865 00000-0 70045-3 0 9995

TLE line 2: 2 56620 98.8873 154.9225 0156668 331.9587 27.3196 13.87260691116313

Live tracking on map

Real-time ground track for satellite CZ-6A DEB.

In-orbit conjunctions

A list of the most updated potential collisions computed for object CZ-6A DEB.

Target Orbit TCA Probability of collision Miss distance Type
FENGYUN 1C DEB SSO 2025-03-31 23:56:07 0.00100766 63.0 (m) DEBRIS

Associated space launch

Chinese satellite reported for atmospheric/ocean/environmental/spatial parameter research purposes, details TBD.

CZ-6A DEB was lifted into orbit during the mission ‘Long March 6A | Yunhai 3’, on board a Long March 6A space rocket.

The launch took place on Nov. 11, 2022, 10:52 p.m. from Launch Complex 9A.

For more information about the launch, click the button.

Launch to space Long March 6A | Yunhai 3
Long March 6A | Yunhai 3

Agency: N/A

Status: Launch Successful

Launch date: Nov. 11, 2022, 10:52 p.m. UTC

Rocket: Long March 6A

Launch pad: Launch Complex 9A

Location: Taiyuan Satellite Launch Center, People's Republic of China

...

Latest news about this satellite

There are no fresh news available about this satellite. Check back as we update our databases every day.


Newsletter sign-up

Weekly statistics, charts and insights to help you stay on top of the space industry.